This is the latest recevied weather packets stored in our database for station/object K5GHS-1. If no packets are shown the sender has not sent any weather packets the latest 10 day(s).
| Time | Temp. | Humidity | Pressure | Rain* | Wind** | Luminosity | Snow |
|---|---|---|---|---|---|---|---|
| 1787874067 | 35.56° C | 39% | 1011.4 hPa | 0 mm | - | 21 W/m² | - |
| 1787873761 | 35.56° C | 39% | 1011.4 hPa | 0 mm | - | 24 W/m² | - |
| 1787873456 | 36.11° C | 39% | 1011.6 hPa | 0 mm | - | 25 W/m² | - |
| 1787873151 | 36.11° C | 38% | 1011.6 hPa | 0 mm | - | 25 W/m² | - |
| 1787872850 | 36.67° C | 38% | 1011.5 hPa | 0 mm | - | 26 W/m² | - |
| 1787872546 | 37.22° C | 38% | 1011.4 hPa | 0 mm | - | 35 W/m² | - |
| 1787872241 | 37.78° C | 36% | 1011.5 hPa | 0 mm | - | 116 W/m² | - |
| 1787871940 | 38.33° C | 35% | 1011.7 hPa | 0 mm | - | 202 W/m² | - |
| 1787871636 | 38.33° C | 35% | 1011.6 hPa | 0 mm | - | 213 W/m² | - |
| 1787871332 | 38.33° C | 35% | 1011.6 hPa | 0 mm | - | 264 W/m² | - |
| 1787871026 | 38.33° C | 35% | 1011.7 hPa | 0 mm | - | 250 W/m² | - |
| 1787870726 | 38.33° C | 36% | 1011.6 hPa | 0 mm | - | 283 W/m² | - |
| 1787870421 | 38.33° C | 35% | 1011.7 hPa | 0 mm | - | 311 W/m² | - |
| 1787870116 | 39.44° C | 34% | 1011.8 hPa | 0 mm | - | 316 W/m² | - |
| 1787869815 | 39.44° C | 34% | 1011.9 hPa | 0 mm | - | 367 W/m² | - |
| 1787869510 | 40° C | 33% | 1011.8 hPa | 0 mm | - | 374 W/m² | - |
| 1787869210 | 39.44° C | 34% | 1011.8 hPa | 0 mm | - | 380 W/m² | - |
| 1787868903 | 38.89° C | 33% | 1011.7 hPa | 0 mm | - | 407 W/m² | - |
| 1787868603 | 38.89° C | 35% | 1012 hPa | 0 mm | - | 378 W/m² | - |
| 1787868301 | 38.89° C | 35% | 1012.1 hPa | 0 mm | - | 363 W/m² | - |
| 1787867996 | 38.89° C | 36% | 1012.1 hPa | 0 mm | - | 407 W/m² | - |
| 1787867692 | 38.33° C | 37% | 1012.2 hPa | 0 mm | - | 417 W/m² | - |
| 1787867392 | 37.78° C | 38% | 1012.1 hPa | 0 mm | - | 445 W/m² | - |
| 1787867088 | 38.33° C | 37% | 1012.2 hPa | 0 mm | - | 63 W/m² | - |
| 1787866783 | 38.89° C | 37% | 1012.3 hPa | 0 mm | - | 260 W/m² | - |
* Rain latest hour (hover to see other rain measurements)
** Current wind speed in m/s (hover to see current wind gust speed)